Weather History for Fairbanks Eiels, AK

Change the Weather History Date:

Tuesday, December 4, 2012

  Actual Average Record
Temperature  
Mean Temperature -35 °F -  
Max Temperature -29 °F 0 °F 47 °F (2011)
Min Temperature -41 °F -16 °F -53 °F (1975)
Degree Days  
Heating Degree Days 100    
Moisture  
Dew Point -29 °F    
Average Humidity 100    
Maximum Humidity 100    
Minimum Humidity 96    
Precipitation  
Precipitation 0.00 in - - ()
Sea Level Pressure  
Sea Level Pressure 30.04 in    
Wind  
Wind Speed 0 mph (South)    
Max Wind Speed 5 mph    
Max Gust Speed -    
Visibility 4 miles    
Events Snow    
Averages and records for this station are not official NWS values.
T = Trace of Precipitation, MM = Missing Value Source: NWS Daily Summary

Daily Weather History Graph

Daily Weather History Graph

Search for Another Location

Airport:

Trip Planner

Search our weather history database for the weather conditions in past years. The results will help you decide how hot, cold, wet, or windy it might be!

Date:

Astronomy

Dec. 04, 2012 Rise Set
Actual Time 10:24 AM AKST 2:53 PM AKST
Civil Twilight 9:07 AM AKST 4:09 PM AKST
Nautical Twilight 7:59 AM AKST 5:18 PM AKST
Astronomical Twilight 6:58 AM AKST 6:18 PM AKST
Moon 10:40 PM AKST (12/4) 12:42 PM AKST (12/4)
Length of Visible Light 7h 02m
Length of Day
4h 29m
Waning Gibbous, 68% of the Moon is Illuminated
Dec 4
Waning Gibbous
Dec 6
Last Quarter
Dec 12
New
Dec 19
First Quarter
Dec 28
Full

Hourly Weather History & Observations

Time (AKST) Temp. Windchill Dew Point Humidity Pressure Visibility Wind Dir Wind Speed Gust Speed Precip Events Conditions
12:00 AM -36.4 °F - - N/A% 30.13 in 3.0 mi Calm Calm - N/A   Overcast
12:17 AM -36.4 °F - - N/A% 30.13 in 3.0 mi Calm Calm - N/A   Overcast
12:27 AM -36.4 °F - - N/A% 30.13 in 2.5 mi Calm Calm - N/A   Overcast
12:32 AM -36.4 °F - - N/A% 30.13 in 2.5 mi Calm Calm - N/A   Overcast
12:42 AM -36.4 °F - - N/A% 30.13 in 2.0 mi Calm Calm - N/A   Overcast
12:50 AM -36.4 °F - - N/A% 30.13 in 1.8 mi Calm Calm - N/A   Overcast
12:55 AM -36.2 °F - - N/A% 30.13 in 2.0 mi Calm Calm - N/A   Overcast
12:57 AM -36.4 °F - - N/A% 30.13 in 2.0 mi Calm Calm - N/A   Overcast
12:59 AM -36.4 °F -49.4 °F - N/A% 30.13 in 2.5 mi SSE 3.5 mph - N/A   Overcast
1:01 AM -36.4 °F -49.4 °F - N/A% 30.13 in 3.0 mi SSE 3.5 mph - N/A   Overcast
1:03 AM -36.4 °F - - N/A% 30.12 in 4.0 mi Calm Calm - N/A   Haze
1:22 AM -36.4 °F - - N/A% 30.12 in 3.0 mi Calm Calm - N/A   Overcast
1:24 AM -36.4 °F - - N/A% 30.12 in 2.5 mi Calm Calm - N/A   Overcast
1:25 AM -36.4 °F - - N/A% 30.12 in 2.0 mi Calm Calm - N/A   Overcast
1:27 AM -36.4 °F - - N/A% 30.12 in 1.8 mi Calm Calm - N/A   Overcast
1:29 AM -36.4 °F - - N/A% 30.12 in 1.5 mi Calm Calm - N/A   Overcast
1:30 AM -36.4 °F - - N/A% 30.12 in 1.2 mi Calm Calm - N/A   Overcast
1:32 AM -36.4 °F - - N/A% 30.12 in 1.2 mi Calm Calm - N/A   Overcast
1:40 AM -36.4 °F - - N/A% 30.12 in 1.5 mi Calm Calm - N/A   Overcast
1:49 AM -36.4 °F - - N/A% 30.12 in 1.2 mi Calm Calm - N/A   Overcast
1:51 AM -36.4 °F - - N/A% 30.12 in 1.5 mi Calm Calm - N/A   Overcast
1:55 AM -36.6 °F - - N/A% 30.12 in 1.5 mi Calm Calm - N/A   Overcast
2:02 AM -36.4 °F - - N/A% 30.12 in 2.0 mi Calm Calm - N/A   Overcast
2:05 AM -36.4 °F - - N/A% 30.11 in 2.5 mi Calm Calm - N/A   Overcast
2:08 AM -36.4 °F - - N/A% 30.11 in 3.0 mi Calm Calm - N/A   Overcast
2:20 AM -36.4 °F - - N/A% 30.11 in 2.5 mi Calm Calm - N/A   Overcast
2:27 AM -36.4 °F - - N/A% 30.11 in 2.5 mi Calm Calm - N/A   Overcast
2:29 AM -36.4 °F - - N/A% 30.11 in 3.0 mi Calm Calm - N/A   Overcast
2:37 AM -36.4 °F - - N/A% 30.11 in 3.0 mi Calm Calm - N/A   Overcast
2:49 AM -38.2 °F -51.5 °F - N/A% 30.11 in 2.5 mi South 3.5 mph - N/A   Overcast
2:54 AM -38.2 °F -54.5 °F - N/A% 30.10 in 2.0 mi South 4.6 mph - N/A   Overcast
2:55 AM -37.7 °F -50.9 °F - N/A% 30.10 in 2.0 mi South 3.5 mph - N/A   Overcast
2:57 AM -38.2 °F -51.5 °F - N/A% 30.10 in 2.0 mi South 3.5 mph - N/A   Overcast
3:01 AM -38.2 °F - - N/A% 30.11 in 1.8 mi Calm Calm - N/A   Mostly Cloudy
3:10 AM -38.2 °F - - N/A% 30.10 in 2.0 mi Calm Calm - N/A   Mostly Cloudy
3:14 AM -38.2 °F - - N/A% 30.10 in 2.5 mi Calm Calm - N/A   Mostly Cloudy
3:16 AM -38.2 °F - - N/A% 30.10 in 2.0 mi Calm Calm - N/A   Mostly Cloudy
3:21 AM -36.4 °F - - N/A% 30.10 in 1.8 mi Calm Calm - N/A   Mostly Cloudy
3:24 AM -36.4 °F - - N/A% 30.10 in 2.0 mi Calm Calm - N/A   Mostly Cloudy
3:29 AM -36.4 °F - - N/A% 30.10 in 2.5 mi Calm Calm - N/A   Mostly Cloudy
3:42 AM -36.4 °F - - N/A% 30.10 in 2.5 mi Calm Calm - N/A   Overcast
3:46 AM -36.4 °F - - N/A% 30.10 in 3.0 mi Calm Calm - N/A   Overcast
3:55 AM -37.1 °F - - N/A% 30.09 in 4.0 mi Calm Calm - 0.00 in   Haze
4:04 AM -36.4 °F -49.4 °F - N/A% 30.09 in 2.5 mi Variable 3.5 mph - N/A   Overcast
4:08 AM -36.4 °F - - N/A% 30.09 in 2.0 mi Calm Calm - N/A   Overcast
4:09 AM -36.4 °F - - N/A% 30.09 in 2.0 mi Calm Calm - N/A   Overcast
4:28 AM -36.4 °F - - N/A% 30.09 in 2.0 mi Calm Calm - N/A   Overcast
4:29 AM -36.4 °F - - N/A% 30.09 in 2.5 mi Calm Calm - N/A   Overcast
4:33 AM -36.4 °F - - N/A% 30.09 in 3.0 mi Calm Calm - N/A   Overcast
4:34 AM -36.4 °F - - N/A% 30.09 in 3.0 mi Calm Calm - N/A   Overcast
4:47 AM -34.6 °F - - N/A% 30.09 in 7.0 mi Calm Calm - N/A   Overcast
4:55 AM -35.3 °F - - N/A% 30.09 in 9.0 mi Calm Calm - N/A   Overcast
5:10 AM -36.4 °F - - N/A% 30.08 in 9.0 mi Calm Calm - N/A   Overcast
5:12 AM -36.4 °F - - N/A% 30.08 in 9.0 mi Calm Calm - N/A   Overcast
5:19 AM -36.4 °F - - N/A% 30.08 in 10.0 mi Calm Calm - N/A   Mostly Cloudy
5:34 AM -36.4 °F - - N/A% 30.08 in 7.0 mi Calm Calm - N/A   Partly Cloudy
5:55 AM -37.5 °F - - N/A% 30.08 in 6.0 mi Calm Calm - N/A   Haze
6:02 AM -36.4 °F - - N/A% 30.08 in 6.0 mi Calm Calm - N/A   Haze
6:41 AM -38.2 °F - - N/A% 30.07 in 8.0 mi Calm Calm - N/A   Mostly Cloudy
6:46 AM -38.2 °F - - N/A% 30.07 in 9.0 mi Calm Calm - N/A   Mostly Cloudy
6:50 AM -38.2 °F -51.5 °F - N/A% 30.07 in 8.0 mi SSE 3.5 mph - N/A   Scattered Clouds
6:55 AM -38.6 °F -54.9 °F - N/A% 30.07 in 7.0 mi South 4.6 mph - N/A   Scattered Clouds
7:15 AM -40.0 °F -56.6 °F - N/A% 30.07 in 8.0 mi SSE 4.6 mph - N/A   Clear
7:48 AM -38.2 °F - - N/A% 30.06 in 4.0 mi Calm Calm - N/A   Clear
7:55 AM -38.4 °F - - N/A% 30.06 in 4.0 mi Calm Calm - N/A   Clear
8:22 AM -40.0 °F - - N/A% 30.06 in 4.0 mi Calm Calm - N/A   Haze
8:54 AM -40.0 °F - - N/A% 30.06 in 7.0 mi Calm Calm - N/A   Clear
8:55 AM -39.3 °F - - N/A% 30.06 in 4.0 mi Calm Calm - N/A   Clear
9:26 AM -40.0 °F - - N/A% 30.05 in 1.0 mi Calm Calm - N/A   Scattered Clouds
9:52 AM -40.0 °F - - N/A% 30.05 in 1.0 mi Calm Calm - N/A   Scattered Clouds
10:21 AM -41.8 °F - - N/A% 30.04 in 0.8 mi Calm Calm - N/A   Partly Cloudy
10:43 AM -41.8 °F -58.7 °F - N/A% 30.04 in 1.0 mi SSE 4.6 mph - N/A   Partly Cloudy
10:55 AM -41.6 °F -58.5 °F - N/A% 30.04 in 1.5 mi SSE 4.6 mph - N/A   Partly Cloudy
11:07 AM -41.8 °F - - N/A% 30.04 in 7.0 mi Calm Calm - N/A   Partly Cloudy
11:18 AM -41.8 °F -58.7 °F - N/A% 30.03 in 1.5 mi South 4.6 mph - N/A   Partly Cloudy
11:55 AM -39.8 °F - - N/A% 30.02 in 1.5 mi Calm Calm - N/A   Clear
12:55 PM -36.9 °F - - N/A% 30.01 in 1.0 mi Calm Calm - N/A   Partly Cloudy
1:29 PM -38.2 °F -51.5 °F - N/A% 30.00 in 1.5 mi South 3.5 mph - N/A   Partly Cloudy
1:50 PM -37.5 °F - - N/A% 29.99 in 2.0 mi Calm Calm - N/A   Partly Cloudy
1:55 PM -37.5 °F - - N/A% 29.99 in 5.0 mi Calm Calm - 0.00 in   Partly Cloudy
2:55 PM -36.8 °F - - N/A% 29.98 in 5.0 mi Calm Calm - N/A   Haze
3:55 PM -36.4 °F - - N/A% 29.96 in 7.0 mi Calm Calm - N/A   Clear
4:55 PM -38.0 °F - - N/A% 29.95 in 8.0 mi Calm Calm - 0.00 in   Clear
5:09 PM -38.2 °F - - N/A% 29.95 in 10.0 mi Calm Calm - N/A   Partly Cloudy
5:18 PM -38.2 °F - - N/A% 29.95 in 7.0 mi Calm Calm - N/A   Mostly Cloudy
5:38 PM -38.2 °F - - N/A% 29.95 in 9.0 mi Calm Calm - N/A   Overcast
5:52 PM -38.2 °F - - N/A% 29.94 in 6.0 mi Calm Calm - N/A   Haze
5:55 PM -38.2 °F - - N/A% 29.94 in 7.0 mi Calm Calm - N/A   Overcast
6:07 PM -38.2 °F - - N/A% 29.94 in 7.0 mi Calm Calm - N/A   Overcast
6:13 PM -38.2 °F - - N/A% 29.94 in 8.0 mi Calm Calm - N/A   Overcast
6:23 PM -36.4 °F - - N/A% 29.94 in 8.0 mi Calm Calm - N/A   Overcast
6:32 PM -34.6 °F -47.4 °F - N/A% 29.93 in 8.0 mi South 3.5 mph - N/A   Overcast
6:55 PM -34.2 °F - - N/A% 29.93 in 7.0 mi Calm Calm - N/A   Overcast
7:49 PM -32.8 °F - - N/A% 29.93 in 10.0 mi Calm Calm - N/A   Overcast
7:55 PM -32.8 °F - - N/A% 29.93 in 10.0 mi Calm Calm - 0.00 in   Overcast
8:10 PM -32.8 °F - - N/A% 29.93 in 10.0 mi Calm Calm - N/A Snow Light Snow
8:15 PM -31.0 °F - - N/A% 29.93 in 10.0 mi Calm Calm - N/A   Overcast
8:35 PM -31.0 °F -43.3 °F - N/A% 29.92 in 10.0 mi SSE 3.5 mph - N/A   Overcast
8:55 PM -30.6 °F - - N/A% 29.92 in 10.0 mi Calm Calm - 0.00 in   Overcast
9:02 PM -31.0 °F - - N/A% 29.92 in 10.0 mi Calm Calm - N/A   Overcast
9:16 PM -31.0 °F - - N/A% 29.92 in 8.0 mi Calm Calm - N/A   Overcast
9:38 PM -29.2 °F - -29.2 °F 100% 29.91 in 5.0 mi Calm Calm - N/A   Overcast
9:55 PM -29.7 °F - -29.9 °F 99% 29.91 in 6.0 mi Calm Calm - N/A   Mostly Cloudy
10:44 PM -29.2 °F - -29.2 °F 100% 29.91 in 10.0 mi Calm Calm - N/A   Overcast
10:52 PM -29.2 °F - -29.2 °F 100% 29.90 in 7.0 mi Calm Calm - N/A   Overcast
10:55 PM -29.2 °F - -29.9 °F 96% 29.90 in 6.0 mi Calm Calm - 0.00 in   Overcast
10:58 PM -29.2 °F - -29.2 °F 100% 29.90 in 6.0 mi Calm Calm - N/A Snow Light Snow
10:59 PM -29.2 °F - -29.2 °F 100% 29.90 in 6.0 mi Calm Calm - N/A Snow Light Snow
11:06 PM -29.2 °F - -29.2 °F 100% 29.90 in 6.0 mi Calm Calm - N/A Snow Light Snow
11:14 PM -29.2 °F - -29.2 °F 100% 29.90 in 5.0 mi Calm Calm - N/A Snow Light Snow
11:16 PM -29.2 °F - -29.2 °F 100% 29.90 in 5.0 mi Calm Calm - N/A Snow Light Snow
11:23 PM -29.2 °F - -29.2 °F 100% 29.90 in 4.0 mi Calm Calm - N/A   Overcast
11:27 PM -29.2 °F - -29.2 °F 100% 29.91 in 4.0 mi Calm Calm - N/A   Overcast
11:44 PM -31.0 °F - - N/A% 29.90 in 4.0 mi Calm Calm - N/A   Haze
11:55 PM -30.3 °F - - N/A% 29.91 in 6.0 mi Calm Calm - 0.00 in   Haze